Tracking 20041 objects as of 22-Nov-2019
Live streaming from Space Station
objects crossing your sky now

COSMOS 2201

Track COSMOS 2201 now!
10-day predictions
COSMOS 2201 is classified as:


NORAD ID: 22038
Int'l Code: 1992-042E
Perigee: 1,416.6 km
Apogee: 1,429.5 km
Inclination: 82.6 °
Period: 114.1 minutes
Semi major axis: 7794 km
RCS: 1.1289 m2 (large)
Launch date: July 13, 1992
Source: Commonwealth of Independent States (former USSR) (CIS)
Launch site: PLESETSK MISSILE AND SPACE COMPLEX (PKMTR)
aabbcc
Your satellite tracking list
Your tracking list is empty




NASA's NSSDC Master Catalog

Two Line Element Set (TLE):
1 22038U 92042E   19325.68623208 +.00000021 +00000-0 +57555-4 0  9991
2 22038 082.5903 347.4258 0008259 358.0882 139.5859 12.61707985259692
Source of the keplerian elements: AFSPC